Tracking 25710 objects as of 5-Jul-2022
HD Live streaming from Space Station
objects crossing your sky now

FENGYUN 1C DEB

Track FENGYUN 1C DEB now!
10-day predictions


NORAD ID: 30483
Int'l Code: 1999-025AGV
Perigee: 380.2 km
Apogee: 412.6 km
Inclination: 99.0 °
Period: 92.3 minutes
Semi major axis: 6767 km
RCS: 0.0087 m2 (small)
Launch date: May 10, 1999
Source: People's Republic of China (PRC)
Launch site: Taiyaun Space Center, China (TSC)

Note: This is SATELLITE DEBRIS
aabbcc
Your satellite tracking list
Your tracking list is empty




NASA's NSSDC Master Catalog

Two Line Element Set (TLE):
1 30483U 99025AGV 22185.71928474  .00395938  00000-0  47201-2 0  9996
2 30483  98.9543 106.6903 0023966  39.7689 320.5314 15.59444412828376
Source of the keplerian elements: AFSPC